ICEYE-X41

导读

ICEYE-X41隶属于芬兰ICEYE公司打造的合成孔径雷达成像卫星星座,由美国于2025年1月14日发射升空。该卫星搭载紧凑型高效合成孔径雷达传感器,可穿透云层实现全天候全天时对地观测,助力获取高分辨率近实时SAR图像,服务于灾害监测、资源勘探等多个领域,进一步扩充了ICEYE星座的全球观测能力。

Basic Information
目录编号:
62700
目录名称:
ICEYE-X41
国际标识:
2025-009CV
轨道中心:
EARTH
卫星名称:
ICEYE-X41
卫星全名:
ICEYE-X41
卫星状态:
在轨 (已飞行606 天)
发射日期:
2025-01-14 UTC
国别 :
美国 (US)
星等 :
--
This satellite is enrolled in the Space Conjunction Data Service (SCDS) and the current flight risk assessment level is: High Risk
Orbit Information
数据来源 国际轨道数据
星历时间: 2026-09-12T11:58:31+0800
11小时前
查看轨道信息
半长轴: 6953.69km
偏心率: 0.0003314
轨道倾角: 97.702°
近地点辐角 97.071°
升交点赤经 333.427°
平近点角 263.089°
近地点: 573.248km
远地点: 577.858km
周期: 96.180分钟
每日圈数: 14.972
Detailed Information
使用方式:
暂无
2D Orbit Map
3D Orbit Map
Orbit Altitude Analysis Chart
Orbit Inclination Analysis Chart
Orbit Comprehensive Analysis Chart
View Comprehensive Chart
Conjunction Data List
Event ID Objects TCA Miss Dist (km) Collision Risk Probability Collision Risk Index (CRI) Action
CDM_260914-041104-916306-270024
2026-09-14T
04:11:29+0000
0.132 km
中距离
1.070084E-3 极高风险 0.96
CDM_260913-055605-677306-270025
2026-09-13T
05:56:16+0000
0.358 km
远距离
3.857785E-4 高风险 0.87
CDM_260906-121105-576206-270024
2026-09-06T
12:11:33+0000
0.664 km
远距离
1.00202E-4 高风险 0.75
CDM_260915-030205-564806-270021
2026-09-15T
03:02:18+0000
0.769 km
远距离
5.255042E-5 中风险 0.69
CDM_260911-194703-792506-270023
2026-09-11T
19:47:14+0000
2.040 km
极远距离
2.731893E-6 低风险 0.44
CDM_260912-223506-270008-918422
2026-09-12T
22:35:33+0000
2.137 km
极远距离
2.440442E-6 低风险 0.43
CDM_260908-171405-574706-270024
2026-09-08T
17:14:32+0000
2.982 km
极远距离
1.361492E-6 低风险 0.38
CDM_260912-220002-949906-270029
METOP-A (29499)
2026-09-12T
22:00:15+0000
2.625 km
极远距离
7.749578E-7 极低风险 0.33
Miss Distance Evolution Trend with All Objects
Collision Probability Evolution Trend with All Objects